Probability
0 0 0 0 0 0 0 0 0 1 3 8 14 20 23 26 30 32 30 30 33 34 35 39 43 44 41 38 36 37 38 41 42 40 39 40 42 42 42 38 34 35 35 33
0 0 0 0 0 0 0 0 0 1 4 9 16 22 24 28 31 32 32 32 35 38 40 42 44 46 45 42 39 38 40 40 39 39 39 38 38 37 37 36 34 33 33 30
0 0 0 0 0 1 1 1 2 4 6 11 17 23 26 29 31 31 32 35 39 45 47 47 47 49 49 47 44 42 41 39 37 37 38 37 35 33 33 33 32 31 29 27
1 0 0 0 1 2 3 5 6 7 8 12 17 21 27 30 31 32 34 38 44 48 50 48 46 47 49 46 44 42 40 38 37 36 35 35 35 34 34 34 32 29 27 26
2 1 0 1 1 2 5 7 9 9 10 12 15 19 25 30 32 34 36 40 44 46 45 45 43 44 44 42 38 36 36 36 35 34 33 33 35 35 35 35 33 29 25 23
3 2 1 1 1 2 5 8 11 13 14 14 15 20 27 32 35 36 38 41 42 40 38 40 43 43 41 38 35 34 33 33 32 32 32 33 33 33 32 31 30 26 22 20
3 3 3 3 3 5 11 15 15 16 18 19 21 27 32 35 37 37 39 41 41 38 35 38 43 43 40 38 36 36 33 31 30 30 29 29 29 28 27 26 25 22 20 21
5 6 6 7 8 14 21 22 18 18 20 22 27 33 35 36 38 38 39 41 41 40 38 39 41 40 37 36 35 36 33 30 29 28 26 24 25 25 25 24 22 20 20 21
11 9 9 11 16 22 26 22 18 19 20 24 29 34 36 39 40 39 39 41 41 40 39 38 36 32 29 30 32 33 32 30 29 27 24 22 22 23 23 22 20 19 19 20
13 12 13 16 20 24 24 21 19 18 20 24 30 34 38 41 41 38 38 40 40 38 36 33 28 23 21 25 28 31 31 31 29 26 24 24 23 22 21 20 19 18 18 18
16 16 18 21 21 20 21 22 21 20 21 26 31 36 38 39 39 37 37 38 37 36 33 28 23 18 17 21 25 28 29 29 28 25 24 24 22 19 17 16 16 17 16 16
20 21 23 23 20 18 18 20 22 23 25 28 31 34 36 37 37 35 34 33 32 31 29 25 20 17 15 18 24 26 25 24 23 23 24 23 19 16 13 13 12 12 11 11
20 21 22 21 18 16 16 18 21 23 25 28 30 32 33 33 33 31 28 25 24 24 23 21 18 15 14 18 23 24 21 19 19 20 20 19 17 15 13 11 10 8 6 6
17 18 19 18 16 15 15 16 17 18 20 23 26 29 30 29 28 25 22 20 19 18 18 18 15 12 13 17 22 23 20 17 17 17 16 15 14 14 13 12 12 10 7 5
13 15 17 17 15 14 13 13 13 12 13 15 18 23 25 24 23 21 19 17 17 17 18 18 16 13 13 15 19 22 19 16 15 14 12 11 11 11 12 13 14 13 11 9
11 12 14 15 14 12 10 9 8 8 9 9 11 16 19 20 20 18 16 14 15 17 19 20 19 17 15 16 18 19 17 13 11 9 7 8 9 9 10 11 12 12 12 11
11 12 12 14 13 10 7 5 4 6 8 8 8 11 13 15 16 16 14 12 13 15 18 20 20 18 17 17 17 16 13 10 6 5 5 6 8 9 9 10 10 10 11 11
12 11 12 14 13 10 8 5 3 6 9 8 7 9 10 11 14 16 15 12 11 13 15 16 16 16 17 17 16 14 12 8 5 4 6 8 9 10 10 9 9 8 9 10
10 11 12 12 11 9 8 7 6 8 9 9 8 9 10 11 14 15 15 13 12 12 14 14 13 14 16 13 11 11 11 8 6 5 6 8 9 10 10 10 9 8 8 8
9 10 10 8 7 7 8 8 9 9 10 9 9 10 11 13 14 14 13 12 12 13 13 12 12 13 12 8 6 8 9 8 6 5 5 5 6 8 9 9 9 7 7 7
10 10 8 7 7 7 8 9 10 10 10 10 10 11 12 14 14 13 12 12 12 12 9 8 9 9 7 4 4 5 6 5 4 4 4 4 4 5 8 9 9 8 7 7
13 12 10 9 9 9 9 9 10 10 10 11 11 11 11 13 13 13 12 12 11 8 5 4 5 5 4 4 4 4 4 2 2 3 3 3 2 3 5 7 7 6 6 6
15 14 12 12 12 11 10 10 10 11 12 12 11 11 11 12 12 11 10 9 7 5 3 3 3 3 4 5 5 4 2 1 1 2 2 1 1 1 2 3 3 3 4 4
13 13 12 12 12 12 12 11 12 12 11 11 10 10 11 11 9 7 5 4 3 3 3 2 1 2 4 5 3 2 1 0 1 1 1 0 0 0 1 1 2 2 3 3
10 10 10 10 12 12 12 11 11 11 9 8 9 9 9 8 5 2 2 2 2 2 3 3 1 2 4 3 1 0 0 1 2 2 1 1 1 1 2 2 2 3 3 3
8 8 8 8 9 10 9 8 7 7 7 7 7 7 6 5 2 1 3 3 3 3 3 3 3 3 3 2 1 1 1 1 3 3 3 3 3 3 2 2 3 3 3 3
7 7 7 7 7 7 6 5 4 5 6 6 6 5 4 3 1 1 3 4 3 3 3 3 3 3 3 2 2 2 2 2 3 3 3 4 5 4 2 1 2 3 3 3
Wind_Speed
12 12 10 10 10 10 10 9 9 6 5 3 2 3 4 6 6 6 5 4 4 4 3 2 3 4 4 4 4 4 5 5 5 4 4 4 3 3 2 2 3 2 2 2
12 11 9 10 10 11 11 10 9 5 3 2 3 3 3 5 5 5 4 4 4 3 3 2 3 3 4 3 4 4 4 5 4 4 4 4 4 4 3 2 2 2 2 1
10 8 8 10 10 10 9 8 8 6 3 2 2 2 3 3 4 4 4 3 3 3 2 2 2 3 4 3 3 4 4 4 5 4 4 4 4 4 3 3 2 2 1 1
9 8 10 7 6 6 6 5 3 3 2 1 3 3 4 4 4 4 3 3 2 2 2 2 2 2 3 4 3 3 3 4 4 4 4 4 4 4 3 3 3 2 2 2
9 10 9 7 4 5 5 4 1 0 1 2 4 4 4 5 4 3 4 3 2 2 2 2 2 1 3 4 4 4 3 4 4 4 4 4 4 3 3 3 3 3 3 2
9 10 8 3 3 5 6 4 1 1 2 2 2 1 2 4 5 5 4 4 3 3 3 2 2 2 3 4 4 3 3 3 3 4 4 4 4 3 3 2 3 3 2 2
10 9 4 4 4 4 5 0 2 2 3 2 2 2 4 5 6 6 5 5 4 4 3 3 3 2 2 3 3 2 3 3 3 4 4 4 4 3 3 3 3 3 2 2
8 9 5 5 4 2 2 4 4 5 4 4 5 7 7 7 6 5 5 4 4 4 4 4 3 2 3 2 1 2 2 3 3 4 4 4 3 3 3 3 3 3 2 3
2 3 1 4 4 3 3 4 3 3 3 3 4 5 6 6 5 5 5 4 4 5 5 5 4 3 3 2 2 2 1 1 2 3 3 3 3 4 3 3 3 3 3 3
2 2 1 2 4 4 3 4 3 3 3 3 4 5 5 6 5 4 4 4 4 5 5 5 4 4 3 3 2 1 1 0 1 2 2 2 2 2 2 3 3 3 3 2
3 2 0 1 3 3 4 3 3 3 4 4 5 5 5 5 4 4 4 4 4 4 4 4 3 3 3 3 2 1 0 1 1 2 2 3 2 1 2 2 3 3 2 2
2 1 1 1 2 3 3 3 3 4 5 4 5 5 5 5 4 4 4 4 4 4 4 3 3 3 3 3 2 1 1 1 1 1 2 2 3 2 2 3 5 5 5 4
2 2 2 2 3 3 2 3 4 4 3 4 4 4 5 5 4 4 4 3 3 3 3 3 3 3 2 2 1 0 1 1 1 1 1 2 2 2 2 2 3 5 5 5
3 2 1 1 1 2 3 3 4 3 3 4 4 4 4 4 4 4 3 3 2 2 2 2 2 2 2 2 2 1 1 1 2 2 2 2 2 2 2 3 3 3 4 5
1 1 1 1 2 2 1 2 2 2 3 4 4 3 3 4 3 3 3 2 2 2 2 2 1 1 2 2 2 2 2 2 2 2 2 2 2 2 2 2 2 1 2 2
1 1 1 1 1 1 2 3 2 2 2 3 3 3 3 3 3 3 2 1 1 2 2 2 2 2 2 2 2 2 2 2 2 3 3 2 2 2 2 2 2 2 2 1
0 1 1 2 2 2 2 1 1 2 2 3 2 3 3 2 2 2 1 1 1 1 1 1 2 2 3 3 3 2 2 2 3 3 2 2 3 3 3 3 3 3 2 2
1 1 1 1 1 1 0 0 1 2 2 3 2 2 1 1 0 0 0 0 0 1 1 2 2 2 3 3 3 3 3 3 2 3 2 2 3 3 3 3 3 3 3 2
1 1 1 1 1 1 1 1 1 1 2 2 2 2 1 1 1 1 0 1 1 2 2 2 2 3 3 2 4 3 4 4 3 3 2 2 3 3 3 3 3 3 3 2
2 2 1 2 2 2 2 1 1 1 1 1 1 1 1 1 1 1 1 2 2 1 1 1 3 3 3 2 3 4 4 4 4 3 3 3 3 3 3 3 3 3 3 2
1 1 2 2 2 2 2 1 2 2 1 1 1 1 1 1 2 2 2 3 1 1 2 3 3 2 2 2 3 4 3 3 4 3 3 3 3 3 4 4 3 3 3 2
1 1 1 1 0 0 0 0 1 1 1 1 1 1 2 3 3 3 3 2 1 1 3 2 1 1 2 3 3 3 3 3 3 3 3 3 4 4 4 4 4 4 3 3
1 1 2 2 1 1 1 1 1 1 1 2 2 3 3 3 2 2 2 1 0 1 3 2 1 1 1 3 3 3 3 3 2 2 2 3 3 4 4 4 4 3 3 3
2 2 2 1 1 1 1 1 0 1 2 3 3 3 2 2 1 1 0 1 1 1 2 1 4 3 3 3 2 2 2 2 2 2 2 2 3 3 3 4 4 4 4 4
0 0 1 1 1 1 0 1 1 1 1 1 1 1 1 1 0 0 1 0 1 2 2 3 6 5 4 2 2 2 1 1 2 3 3 3 3 3 3 3 3 3 3 3
0 0 0 1 1 1 1 0 0 0 0 0 0 1 1 1 1 0 1 1 1 1 1 1 2 3 2 2 1 1 1 0 1 2 3 3 2 3 2 3 4 3 3 3
0 0 0 0 1 1 1 1 1 1 1 1 1 2 2 1 1 1 1 1 1 1 0 0 1 1 1 1 1 1 1 1 1 2 3 2 2 2 3 4 3 3 3 3
Wind_Direction
265 271 253 247 246 244 242 246 255 251 222 188 147 135 130 122 121 128 131 127 119 112 115 152 159 160 158 165 164 170 172 176 174 169 158 157 159 156 162 187 201 180 173 179
261 262 267 263 251 249 248 243 247 253 264 157 126 111 123 125 129 131 133 136 131 128 130 148 162 163 158 157 160 163 172 170 158 159 157 156 159 158 164 179 186 172 180 186
258 253 262 258 261 251 249 250 246 246 244 161 123 92 104 129 141 137 134 123 111 113 118 129 157 153 153 156 152 160 165 157 153 158 157 158 170 164 171 180 177 178 190 183
257 255 244 245 267 269 264 265 262 247 246 171 115 81 80 87 102 105 93 100 104 108 114 115 112 128 148 147 145 152 154 153 153 158 161 160 163 172 177 177 179 183 197 187
250 248 242 244 265 283 268 255 286 139 102 87 92 101 100 80 81 91 103 97 91 94 85 83 111 119 138 142 146 157 162 161 164 168 163 157 164 179 180 178 186 195 197 187
248 248 245 261 287 300 276 219 75 82 73 85 103 212 99 78 76 74 82 90 90 99 96 78 76 99 135 146 149 164 168 163 163 163 163 164 172 179 180 186 198 196 197 196
246 248 244 308 316 294 260 305 21 63 81 63 37 76 95 88 77 76 70 73 77 91 93 77 63 86 112 140 155 157 149 150 166 165 170 166 171 180 185 195 203 202 205 200
239 246 249 324 318 348 32 38 37 44 57 60 71 86 93 90 83 87 80 77 79 80 77 71 66 76 81 88 102 114 137 159 172 173 183 177 175 185 192 197 206 209 209 211
243 238 61 27 41 58 49 42 43 46 52 69 90 96 100 97 89 86 86 77 78 80 74 66 57 61 71 63 76 93 109 146 174 182 175 169 182 192 195 200 218 224 227 229
251 229 211 51 59 39 38 45 36 33 59 83 93 103 106 101 95 89 82 72 72 77 77 68 57 47 48 41 65 108 134 172 212 190 175 168 185 192 200 217 219 225 232 238
250 239 205 74 53 53 50 37 37 34 63 82 101 106 102 100 94 90 86 76 77 76 77 76 64 47 39 32 30 52 145 208 215 203 188 174 183 199 202 208 211 216 233 246
245 306 300 62 47 53 54 50 53 56 62 69 96 99 97 99 96 97 97 89 84 82 76 68 66 52 36 22 14 40 1 273 255 225 198 189 184 198 214 210 202 209 219 227
27 20 47 39 49 52 56 59 66 64 62 67 70 78 91 98 95 88 84 86 83 80 76 63 54 44 23 4 344 297 273 281 285 281 247 220 203 202 212 227 233 231 227 228
36 40 73 77 66 67 68 66 68 64 71 87 83 81 88 94 93 89 84 72 71 76 71 58 39 20 1 350 331 303 292 281 272 277 285 269 247 234 230 225 220 226 228 225
3 56 81 90 98 100 101 104 102 84 102 103 104 105 108 105 100 94 83 68 57 54 49 37 10 348 353 337 326 305 296 296 294 301 297 286 275 272 274 268 266 243 210 201
33 83 138 129 133 161 166 158 149 136 126 116 114 112 109 109 109 101 91 74 62 39 29 10 347 343 331 317 305 280 272 288 291 286 287 290 287 285 287 280 276 271 261 249
340 234 200 199 204 205 205 187 161 139 137 129 120 113 112 109 98 92 81 44 51 34 8 340 328 326 322 320 304 289 284 278 261 268 277 291 299 301 294 284 284 283 273 232
254 264 265 247 195 186 282 264 162 150 138 125 125 124 131 132 152 87 328 320 323 321 314 310 320 307 303 315 308 305 297 293 292 285 284 293 302 296 291 291 288 288 282 244
160 109 358 315 278 229 258 264 190 149 139 144 151 154 175 183 189 186 193 232 265 266 283 313 301 285 286 306 305 280 286 292 290 289 290 282 278 281 286 288 294 300 306 310
145 149 200 245 248 246 234 210 187 164 158 162 170 188 205 215 213 224 231 244 250 267 270 270 260 267 271 289 300 290 294 300 302 300 295 292 291 293 290 290 291 294 295 292
156 176 208 223 214 230 229 196 183 184 191 190 196 223 241 248 237 232 248 259 246 279 267 237 243 264 284 305 278 287 301 308 309 307 303 302 304 303 298 299 296 293 297 300
80 43 6 346 318 294 276 178 183 191 196 213 240 252 255 249 241 240 244 258 247 267 271 255 248 22 329 295 283 295 300 306 313 315 314 314 313 311 312 313 312 315 316 316
52 43 17 360 18 5 308 229 211 203 209 227 236 242 246 256 260 263 268 264 297 283 279 310 110 143 296 283 287 299 307 313 318 319 319 317 312 308 312 318 319 324 319 315
32 23 2 348 333 306 263 228 234 209 220 230 230 237 243 240 240 253 357 106 103 233 279 158 173 200 242 263 279 296 303 311 322 327 331 329 323 323 322 318 317 318 317 318
92 41 38 347 313 318 297 259 259 242 251 245 194 200 212 173 169 30 348 310 171 217 241 175 189 205 232 255 258 262 282 332 335 330 331 334 332 332 329 327 329 323 320 325
193 238 29 337 358 335 300 254 187 158 31 19 37 73 71 77 100 197 264 271 289 276 279 148 188 211 247 279 301 317 323 320 305 310 322 326 336 341 340 338 338 334 329 327
241 137 192 31 3 325 345 12 5 357 9 17 14 26 29 25 28 349 325 327 331 303 297 294 281 277 281 299 311 310 316 343 337 331 324 326 341 347 342 332 331 327 324 328